Location: Unspecified
(0.0000°N, 0.0000°E)
Time: 01:26:34
(UTC+00:00)

Hubble Space Telescope - Visible Passes

Search period start: 21 October 2017 00:00
Search period end: 31 October 2017 00:00
Orbit: 537 x 541 km, 28.5° (Epoch: 20 October)

Date Brightness Start Highest point End Pass type
(mag) Time Alt. Az. Time Alt. Az. Time Alt. Az.
21 Oct 2.4 04:15:20 23° SSW 04:15:20 23° SSW 04:18:16 10° SSE visible
22 Oct 3.0 04:05:54 16° S 04:05:54 16° S 04:07:34 10° SSE visible
23 Oct 3.5 03:56:23 10° S 03:56:23 10° S 03:56:33 10° S visible
